OBJECT AM, 67283

Orbit data source: Space-Track

You're viewing an Uncataloged Satellite

Recently launched and/or uncataloged satellites may have evolving metadata. Metadata may include but not limited to: Owner, Maufacturer, Bus, Motor, and Mission.

OBJECT AM, 67283 is a satellite in SSO that was launched on Sun, 28 Dec 2025 UTC via a SOYUZ-2-1B launch vehicle from the Vostochny Cosmodrome (VOSTO). Unknown objects in Earth's orbit typically refer to objects detected orbiting the Earth but have not yet been identified or cataloged. These objects could be anything from previously untracked satellites, spent rocket stages, debris from satellite collisions, or even natural meteoroids temporarily captured by Earth's gravity.

Loading next visibility...
Identifier
67283, 2025-313AM
Orbit
SSO
Country
Flag of TBDTBD
Related business
Flag of RUMoscow State Technical University of Civil Aviation (RU)
Manufacturer
MGTU Bauman
Mission
Operational Commercial Technology
Bus & Motor
CUBESAT 8U, Unknown motor
Mass
10 kg wet, 10 kg dry
Launch date (UTC)
2025-12-28 (6 months ago)
Launch vehicle
SOYUZ-2-1B
Launch site
Vostochny Cosmodrome (VOSTO)
Object type
Unknown
Shape & HBR
Box, 0.1 m
Radar Cross Section
0.080 m², Medium (>0.1 m² and < 1m²)

Expand to show TLE details & history
Last TLE update: 19 hours ago

TLE from 19 hours ago
0 OBJECT AM
1 67283U 25313AM  26171.17485832  .00005026  00000-0  21044-3 0  9992
2 67283  97.3930 246.0265 0009782 356.9350   3.1825 15.23961829 26420
Epoch: 2026-06-20T04:11Z
TLE epoch observation values (Epoch: 2026-06-20T04:11:47.758Z)
Latitude
-0.00012°
Longitude
-85.31574°
Altitude
490.287 km
Speed
7.624 km/s
True Right ascension
16h 24m 06s
True Declination
0° 00' 00"
Sunlit
Object was in full shadow at epoch
Visualization orbit readout
Latitude
Unknown
Longitude
Unknown
Altitude
Unknown
Speed
Unknown
Apparent Right ascension
Unknown
Apparent Declination
Unknown
Sunlit
N/A
Visualization observer readout
Local Sidereal Time
10:18:24
Azimuth
Unknown
Elevation
Unknown
Doppler factor
Unknown
Orbital elements
Apogee altitude
497.584 km
Perigee altitude
484.145 km
Semi-major axis
6,869.002 km
Eccentricity
0.00098
Inclination
97.393°
RAAN
246.0265°
Arg. of periapsis
356.935°
True anomaly
3.18873°
Mean anomaly
3.1825°
Eccentric anomaly
3.18561°
Mean motion
3.81244 °/min
Orbital period
94.43 mins
BSTAR
0.00021044
Loading maneuver chart data...
Computing Atmospheric mass density...
Loading historical data...
Loading historical data...
Loading historical data...
Loading historical data...
Loading historical data...
Loading historical data...
Loading historical data...

Documentation

Showing up to 5 results
|